[[{"header":{"parameterUnit":"m.s-1","parameterCategory":1,"la1":30.2991,"la2":30.254,"lo1":-89.0895,"lo2":-89.0444,"dy":0.0017,"dx":0.0017,"nx":28,"ny":28,"refTime":"2025-02-08T09:00:00:Z","depth":0,"parameterNumber":2,"parameterNumberName":"U-component_of_WINDS"},"data":[0,0,0,0,0,0,0,0,0,0,0,0,0,0,0,0,0,0,0,0,0,0,0,0,0,0,0,0,0,0,0,0,0,0,0,0,0,0,0,0,0,0,0,0,0,0,0,0,0,0,0,0,0,0,0,0,0,0,-0.1129,-0.1129,0,-0.1139,-0.1139,-0.114,-0.1148,-0.1148,-0.1148,-0.1148,-0.1159,-0.1159,-0.1159,0,0,0,0,0,0,0,0,0,0,0,0,0,-0.1116,-0.1116,-0.1129,-0.1129,-0.1129,-0.1139,-0.1139,-0.114,-0.1148,-0.1148,-0.1148,-0.1148,-0.1159,-0.1159,-0.1159,0,0,0,0,0,0,0,0,0,0,0,0,0,-0.1123,-0.1116,-0.1129,-0.1135,-0.1135,-0.1139,-0.1139,-0.114,-0.1148,-0.1148,-0.1148,-0.1148,-0.1159,-0.1159,-0.1159,-0.1159,0,0,-0.116,-0.116,0,0,0,0,0,0,0,0,-0.1123,-0.1124,-0.1134,-0.1134,-0.1135,-0.1142,-0.1139,-0.1146,-0.1148,-0.1143,-0.1148,-0.1148,-0.1153,-0.1154,-0.1156,-0.1159,-0.1159,-0.116,-0.116,-0.116,-0.116,0,0,0,0,0,0,0,-0.1123,-0.1124,-0.1133,-0.1134,-0.1134,-0.1136,-0.1138,-0.114,-0.1147,-0.1143,-0.1144,-0.1145,-0.1154,-0.1155,-0.1156,-0.116,-0.116,-0.116,-0.1161,-0.1161,-0.1162,-0.1162,0,0,0,0,0,0,-0.1121,-0.1123,-0.1133,-0.1133,-0.1129,-0.1137,-0.1138,-0.114,-0.1147,-0.1149,-0.1145,-0.1146,-0.1155,-0.1156,-0.1156,-0.1156,-0.116,-0.1161,-0.1161,-0.1163,-0.1162,-0.1162,0,0,0,0,0,0,-0.1121,-0.1122,-0.1132,-0.1128,-0.113,-0.1137,-0.1139,-0.114,-0.1142,-0.1148,-0.115,-0.1146,-0.1155,-0.1156,-0.1158,-0.1156,-0.1161,-0.1161,-0.1163,-0.1162,-0.1162,-0.1154,0,0,0,0,0,0,-0.112,-0.1122,-0.1122,-0.1128,-0.113,-0.1134,-0.1139,-0.114,-0.1142,-0.1143,-0.1149,-0.115,-0.1155,-0.1157,-0.1158,-0.1157,-0.1161,-0.1163,-0.1163,-0.1162,-0.1155,-0.1154,-0.1153,0,0,0,0,0,-0.112,-0.1119,-0.1122,-0.1123,-0.113,-0.1134,-0.1135,-0.114,-0.1142,-0.1142,-0.1146,-0.115,-0.1156,-0.1157,-0.1158,-0.1157,-0.1163,-0.1163,-0.1162,-0.1155,-0.1154,-0.1153,0,0,0,0,0,0,-0.1112,-0.112,-0.1123,-0.1124,-0.1128,-0.1135,-0.1135,-0.1139,-0.1142,-0.1142,-0.1149,-0.115,-0.1151,-0.1154,-0.1156,-0.1156,-0.116,-0.116,-0.1154,-0.1153,-0.1153,-0.1152,-0.1162,0,0,0,0,0,-0.1111,-0.1113,-0.112,-0.112,-0.1122,-0.1128,-0.113,-0.1134,-0.1138,-0.114,-0.1144,-0.1148,-0.1151,-0.1152,-0.1155,-0.1155,-0.1157,-0.1155,-0.1154,-0.1153,-0.1153,-0.1153,-0.1152,-0.1161,-0.1161,-0.1161,0,0,-0.1108,-0.1112,-0.1114,-0.1119,-0.1122,-0.1124,-0.113,-0.1132,-0.1133,-0.114,-0.1142,-0.1145,-0.115,-0.1151,-0.1151,-0.1153,-0.1151,-0.1153,-0.1152,-0.1153,-0.1153,-0.1152,-0.1151,-0.1161,-0.1161,-0.1161,0,0,-0.1103,-0.1107,-0.1108,-0.1111,-0.1116,-0.112,-0.112,-0.1126,-0.1128,-0.113,-0.1135,-0.1137,-0.1142,-0.1145,-0.1147,-0.1143,-0.1146,-0.1144,-0.1139,-0.1139,-0.1138,-0.1138,-0.1136,-0.1135,-0.1143,-0.1143,-0.1143,0,-0.1099,-0.1102,-0.1108,-0.1109,-0.1111,-0.1117,-0.1118,-0.1121,-0.1126,-0.1128,-0.113,-0.1135,-0.1139,-0.114,-0.1139,-0.1141,-0.1141,-0.1143,-0.1138,-0.1137,-0.1137,-0.1135,-0.1134,-0.1143,-0.1143,-0.1143,-0.1143,0,-0.1096,-0.1098,-0.1098,-0.1103,-0.1105,-0.1106,-0.1112,-0.1113,-0.1117,-0.112,-0.1122,-0.1127,-0.113,-0.1131,-0.1134,-0.1133,-0.1134,-0.1137,-0.1141,-0.1136,-0.1134,-0.1133,-0.1142,-0.1143,-0.1143,-0.1143,0,0,-0.1088,-0.1095,-0.1095,-0.1097,-0.1103,-0.1104,-0.1106,-0.1109,-0.111,-0.1114,-0.1114,-0.1118,-0.1121,-0.1123,-0.1127,-0.1127,-0.1122,-0.113,-0.113,-0.1128,-0.112,-0.1118,-0.1117,-0.1125,-0.1125,-0.1125,-0.112,0,-0.1084,-0.1086,-0.1091,-0.1091,-0.1093,-0.1099,-0.1099,-0.1103,-0.1106,-0.1108,-0.1112,-0.1114,-0.1118,-0.1119,-0.1119,-0.1123,-0.1121,-0.1123,-0.1125,-0.1125,-0.1124,-0.1116,-0.1113,-0.1108,-0.1119,-0.1119,-0.1119,0,-0.1079,-0.1082,-0.1083,-0.1088,-0.1089,-0.109,-0.1093,-0.1095,-0.1098,-0.1101,-0.1103,-0.1107,-0.1108,-0.1112,-0.1113,-0.1115,-0.1116,-0.1118,-0.1118,-0.1118,-0.1122,-0.1115,-0.1107,-0.1106,-0.1118,-0.1118,-0.1118,0,-0.1072,-0.1076,-0.1077,-0.1079,-0.1085,-0.1085,-0.1088,-0.1092,-0.1093,-0.1096,-0.1097,-0.11,-0.1101,-0.1103,-0.1108,-0.111,-0.1109,-0.1113,-0.111,-0.111,-0.111,-0.111,-0.1101,-0.1111,-0.1111,-0.1111,-0.1111,0,-0.1067,-0.1067,-0.1074,-0.1074,-0.1075,-0.108,-0.108,-0.1083,-0.1086,-0.1087,-0.1092,-0.1093,-0.1099,-0.1101,-0.1104,-0.1105,-0.1106,-0.1107,-0.1108,-0.1107,-0.1106,-0.1107,-0.1107,-0.1111,-0.1111,-0.1111,-0.1111,0,-0.1059,-0.1064,-0.1065,-0.107,-0.1072,-0.1071,-0.1076,-0.1077,-0.108,-0.1081,-0.1082,-0.1087,-0.1089,-0.1094,-0.1097,-0.1099,-0.1099,-0.11,-0.1097,-0.1098,-0.1095,-0.1095,-0.1086,-0.1085,-0.1096,-0.1096,-0.1096,0,-0.1056,-0.1056,-0.1061,-0.1062,-0.1064,-0.1066,-0.1067,-0.1072,-0.1073,-0.1077,-0.1077,-0.108,-0.1082,-0.1084,-0.1088,-0.1091,-0.1093,-0.1089,-0.1093,-0.1091,-0.1092,-0.1092,-0.1091,-0.1088,-0.1088,-0.1088,-0.1088,0,-0.1048,-0.105,-0.1052,-0.1055,-0.1056,-0.1059,-0.1061,-0.1062,-0.1067,-0.1069,-0.107,-0.1072,-0.1075,-0.1077,-0.108,-0.1082,-0.1086,-0.1087,-0.1086,-0.1084,-0.1082,-0.1083,-0.1094,-0.1087,-0.1087,-0.1087,-0.1087,-0.1087,-0.1042,-0.1042,-0.1046,-0.1048,-0.105,-0.1052,-0.1053,-0.1056,-0.1057,-0.106,-0.1063,-0.1064,-0.1068,-0.1072,-0.1074,-0.1075,-0.1077,-0.1076,-0.1076,-0.1076,-0.1075,-0.1082,-0.1076,-0.1076,-0.1076,-0.1076,-0.1076,0,-0.1035,-0.1037,-0.1039,-0.1042,-0.1043,-0.1046,-0.1049,-0.105,-0.1051,-0.1054,-0.1056,-0.1057,-0.1059,-0.1063,-0.1065,-0.1065,-0.1067,-0.1066,-0.1065,-0.1066,-0.1073,-0.1073,-0.1064,-0.1064,-0.1064,-0.1064,-0.1064,-0.1064,-0.1031,-0.1031,-0.1034,-0.1035,-0.1037,-0.1039,-0.104,-0.1042,-0.1044,-0.1045,-0.1047,-0.1049,-0.1053,-0.1055,-0.1056,-0.1058,-0.1058,-0.1056,-0.1057,-0.1064,-0.1065,-0.1066,-0.1066,-0.1056,-0.1056,-0.105,-0.105,-0.105]},{"header":{"parameterUnit":"m.s-1","parameterCategory":1,"la1":30.2991,"la2":30.254,"lo1":-89.0895,"lo2":-89.0444,"dy":0.0017,"dx":0.0017,"nx":28,"ny":28,"refTime":"2025-02-08T09:00:00:Z","depth":0,"parameterNumber":3,"parameterNumberName":"V-component_of_WINDS"},"data":[0,0,0,0,0,0,0,0,0,0,0,0,0,0,0,0,0,0,0,0,0,0,0,0,0,0,0,0,0,0,0,0,0,0,0,0,0,0,0,0,0,0,0,0,0,0,0,0,0,0,0,0,0,0,0,0,0,0,3.4123,3.4124,0,3.4187,3.4188,3.4189,3.4196,3.4195,3.4194,3.4194,3.426,3.4262,3.4264,0,0,0,0,0,0,0,0,0,0,0,0,0,3.4007,3.4009,3.4123,3.4124,3.4124,3.4187,3.4188,3.4189,3.4196,3.4195,3.4194,3.4193,3.4259,3.4262,3.4265,0,0,0,0,0,0,0,0,0,0,0,0,0,3.4063,3.4009,3.4123,3.4135,3.4137,3.4187,3.4188,3.4189,3.4196,3.4195,3.4194,3.4193,3.4258,3.4261,3.4265,3.4307,0,0,3.4276,3.4277,0,0,0,0,0,0,0,0,3.406,3.4067,3.4133,3.4135,3.4137,3.4182,3.4171,3.4229,3.4196,3.4174,3.4194,3.4193,3.4235,3.424,3.4254,3.431,3.4313,3.4276,3.4278,3.428,3.4281,0,0,0,0,0,0,0,3.4056,3.4064,3.4148,3.4134,3.4136,3.4138,3.4145,3.4182,3.4209,3.4176,3.4176,3.4184,3.4236,3.4251,3.4256,3.4314,3.4276,3.4279,3.4281,3.4283,3.4409,3.441,0,0,0,0,0,0,3.4049,3.4061,3.4146,3.415,3.4095,3.4141,3.4149,3.4169,3.4209,3.4214,3.4184,3.4184,3.4245,3.4252,3.4258,3.4312,3.428,3.4283,3.4285,3.4408,3.4409,3.4411,0,0,0,0,0,0,3.4047,3.4057,3.4144,3.4106,3.4117,3.4144,3.4166,3.4171,3.4186,3.4215,3.422,3.4195,3.4245,3.4253,3.4295,3.4314,3.4285,3.4288,3.4406,3.4408,3.441,3.4418,0,0,0,0,0,0,3.4043,3.4056,3.4072,3.4106,3.4119,3.4179,3.4168,3.4172,3.4192,3.4192,3.4227,3.4232,3.4245,3.429,3.4299,3.4319,3.4291,3.4405,3.4407,3.4409,3.4416,3.442,3.4423,0,0,0,0,0,3.4039,3.4071,3.4072,3.4083,3.4139,3.418,3.4188,3.4202,3.4193,3.421,3.4229,3.423,3.431,3.4294,3.4304,3.4325,3.4404,3.4406,3.4409,3.4415,3.4419,3.4423,0,0,0,0,0,0,3.4037,3.4075,3.4078,3.4121,3.4147,3.4181,3.4202,3.4206,3.4235,3.4234,3.4251,3.4258,3.43,3.4317,3.4298,3.4369,3.4356,3.4361,3.4357,3.4362,3.4365,3.4361,3.4294,0,0,0,0,0,3.4042,3.4072,3.4103,3.4139,3.4152,3.4175,3.4193,3.4202,3.423,3.4241,3.4263,3.4291,3.4322,3.4342,3.4373,3.4418,3.4427,3.4438,3.4441,3.4444,3.4449,3.4476,3.4482,3.442,3.442,3.4419,0,0,3.4052,3.4076,3.4094,3.4139,3.4161,3.4192,3.4184,3.4217,3.4241,3.4246,3.4288,3.4305,3.4336,3.4381,3.4402,3.4396,3.4468,3.4447,3.4449,3.4453,3.448,3.4486,3.4491,3.4421,3.4421,3.4421,0,0,3.4086,3.4107,3.414,3.4162,3.4195,3.421,3.4218,3.4252,3.4264,3.4306,3.4311,3.4339,3.4393,3.4416,3.4434,3.4479,3.4482,3.4489,3.4507,3.4534,3.4539,3.4544,3.4562,3.4568,3.4493,3.4493,3.4493,0,3.4095,3.4142,3.4157,3.419,3.4211,3.4217,3.4252,3.4272,3.4313,3.4328,3.432,3.4389,3.441,3.4462,3.4473,3.4487,3.4498,3.4485,3.4537,3.4542,3.4546,3.4564,3.4571,3.4493,3.4493,3.4493,3.4493,0,3.4152,3.4185,3.4207,3.4248,3.4271,3.4304,3.4325,3.4346,3.4353,3.437,3.4413,3.4439,3.4476,3.4489,3.4496,3.4542,3.4538,3.4533,3.4521,3.4553,3.457,3.4577,3.4494,3.4494,3.4494,3.4494,0,0,3.4187,3.4236,3.4245,3.4264,3.4301,3.4327,3.4362,3.4398,3.4417,3.4445,3.4476,3.4522,3.4519,3.454,3.455,3.4573,3.461,3.4566,3.4567,3.4576,3.4665,3.467,3.4677,3.4612,3.4613,3.4614,3.4663,0,3.4228,3.429,3.4305,3.4358,3.439,3.4397,3.4428,3.4454,3.4471,3.45,3.4518,3.4551,3.4544,3.4557,3.458,3.46,3.4629,3.4597,3.4642,3.4643,3.4636,3.4686,3.469,3.4735,3.467,3.4671,3.4672,0,3.4284,3.4314,3.4371,3.4407,3.442,3.4447,3.4483,3.4511,3.4542,3.4552,3.4577,3.4584,3.4622,3.4606,3.4659,3.4637,3.4657,3.4669,3.4672,3.4678,3.4661,3.4695,3.475,3.4758,3.4682,3.4681,3.468,0,3.4307,3.4362,3.4404,3.442,3.4461,3.4481,3.4499,3.4529,3.455,3.4581,3.4596,3.4631,3.4651,3.4678,3.4695,3.4682,3.4747,3.4733,3.4759,3.4758,3.4774,3.4773,3.4834,3.4782,3.4782,3.4782,3.4782,0,3.4352,3.4387,3.4416,3.4441,3.4482,3.4498,3.4538,3.4556,3.4583,3.4613,3.4621,3.4649,3.4669,3.4701,3.4714,3.4758,3.4766,3.4776,3.478,3.4777,3.4776,3.4791,3.4789,3.4784,3.4783,3.4783,3.4783,0,3.4386,3.4406,3.4452,3.4488,3.4498,3.4526,3.4557,3.4583,3.46,3.4638,3.4648,3.4674,3.4712,3.4732,3.4778,3.4788,3.4837,3.4838,3.4827,3.4829,3.4855,3.4853,3.4929,3.4941,3.4879,3.488,3.488,0,3.4414,3.4442,3.4481,3.4502,3.4521,3.4554,3.4577,3.4595,3.4618,3.4656,3.4678,3.4716,3.4748,3.4808,3.4832,3.4868,3.4871,3.4895,3.4876,3.4873,3.4874,3.4874,3.4877,3.4899,3.49,3.49,3.4901,0,3.4464,3.4473,3.4505,3.4542,3.4569,3.4598,3.4627,3.4644,3.4666,3.4692,3.4731,3.4756,3.4804,3.4843,3.4881,3.4901,3.4906,3.4906,3.4915,3.4913,3.4907,3.4913,3.4839,3.4905,3.4904,3.4904,3.4904,3.4904,3.4498,3.4523,3.4555,3.4592,3.4616,3.4643,3.467,3.4691,3.4723,3.4765,3.4773,3.4815,3.4846,3.4899,3.4919,3.4953,3.4948,3.4959,3.4963,3.4966,3.4968,3.49,3.4959,3.4959,3.4959,3.4959,3.4959,0,3.455,3.4571,3.4604,3.4645,3.4674,3.4676,3.4708,3.4733,3.477,3.4799,3.483,3.4876,3.4914,3.4941,3.4979,3.5001,3.5005,3.5011,3.5011,3.5016,3.4969,3.4959,3.5008,3.5008,3.5008,3.5008,3.5008,3.5008,3.458,3.4625,3.4638,3.4695,3.4716,3.4757,3.4776,3.4802,3.4826,3.4877,3.4908,3.4926,3.4955,3.4996,3.5031,3.5038,3.5053,3.506,3.5067,3.5024,3.5019,3.5014,3.5005,3.5062,3.5062,3.5112,3.5112,3.5112]}]]